Location: Caltech
(34.1382°N, 118.1253°W)
Time: 01:12:56
(UTC-08:00)

Cosmos 2333 Rocket - Visible Passes

Search period start: 06 February 2016 00:00
Search period end: 16 February 2016 00:00
Orbit: 838 x 864 km, 70.8° (Epoch: 06 February)

Date Brightness Start Highest point End Pass type
(mag) Time Alt. Az. Time Alt. Az. Time Alt. Az.
06 Feb 5.0 19:15:44 10° WNW 19:17:43 12° NW 19:19:43 10° NNW visible
07 Feb 5.0 19:03:32 10° WNW 19:05:31 12° NW 19:07:30 10° NNW visible
08 Feb 5.0 18:51:20 10° WNW 18:53:18 12° NW 18:55:17 10° NNW visible
09 Feb 5.0 18:39:08 10° WNW 18:41:06 12° NW 18:43:03 10° NNW visible
10 Feb 5.0 18:26:56 10° WNW 18:28:53 12° NW 18:30:50 10° NNW visible
11 Feb 5.0 18:14:44 10° WNW 18:16:41 12° NW 18:18:37 10° NNW visible
12 Feb 5.0 18:02:33 10° WNW 18:04:28 12° NW 18:06:24 10° NNW visible
